{"data":{"norad_id":64845,"intl_designator":"2025-152D","name":"STARLINK-34706","alt_names":[],"object_type":"PAYLOAD","status":"ACTIVE","operator":null,"country":"US","launch_date":"2025-07-19","launch_site_code":"AFWTR","launch_vehicle":null,"mission":null,"orbit_class":"UNKNOWN","rcs_meters":null,"size_class":null,"mass_kg":null,"dimensions":null,"purposes":["comms"],"wikipedia_slug":null,"has_3d_model":false,"image_url":null,"decayed_at":null,"tle_current":{"epoch":"2026-05-25T02:48:22.381344Z","epoch_age_seconds":58848,"freshness":"FRESH","line1":"1 64845U 25152D   26145.11692571  .00002049  00000+0  14603-3 0  9993","line2":"2 64845  97.4499   0.4015 0002349  68.8045 291.3433 15.05655548 46919","mean_motion":15.05655548,"eccentricity":0.0002349,"inclination_deg":97.4499,"raan_deg":0.4015,"arg_perigee_deg":68.8045,"mean_anomaly_deg":291.3433,"bstar":0.00014603,"rev_number":4691,"period_min":95.639404504755,"perigee_km":547.86683559752,"apogee_km":551.12143670529,"semimajor_km":6927.6311361514,"source":"CELESTRAK","updated_at":"2026-05-25T13:38:20.611593Z"}}}